Time,TemperatureF,DewpointF,PressureIn,WindDirection,WindDirectionDegrees,WindSpeedMPH,WindSpeedGustMPH,Humidity,HourlyPrecipIn,Conditions,Clouds,dailyrainin,SoftwareType,DateUTC
2013-05-25 00:02:00,51.0,45.0,30.29,NW,318,0.0,0.0,79,0.00,,,0.00,,2013-05-25 05:02:00,
2013-05-25 00:12:00,51.0,45.0,30.29,NW,318,0.0,0.0,79,0.00,,,0.00,,2013-05-25 05:12:00,
2013-05-25 00:22:00,51.0,45.0,30.29,NW,318,0.0,0.0,79,0.00,,,0.00,,2013-05-25 05:22:00,
2013-05-25 00:32:00,50.0,44.0,30.29,NW,318,0.0,0.0,79,0.00,,,0.00,,2013-05-25 05:32:00,
2013-05-25 00:42:00,50.0,44.0,30.29,NW,318,0.0,0.0,79,0.00,,,0.00,,2013-05-25 05:42:00,
2013-05-25 00:52:00,50.0,44.0,30.29,NW,318,0.0,0.0,79,0.00,,,0.00,,2013-05-25 05:52:00,
2013-05-25 01:02:00,50.0,44.0,30.29,NW,318,0.0,0.0,80,0.00,,,0.00,,2013-05-25 06:02:00,
2013-05-25 01:12:00,50.0,44.0,30.29,NW,318,0.0,0.0,81,0.00,,,0.00,,2013-05-25 06:12:00,
2013-05-25 01:21:00,50.0,44.0,30.29,NW,318,0.0,0.0,81,0.00,,,0.00,,2013-05-25 06:21:00,
2013-05-25 01:32:00,49.0,44.0,30.29,NW,318,0.0,0.0,82,0.00,,,0.00,,2013-05-25 06:32:00,
2013-05-25 01:42:00,49.0,44.0,30.29,NW,318,0.0,0.0,82,0.00,,,0.00,,2013-05-25 06:42:00,
2013-05-25 01:52:00,49.0,44.0,30.27,NW,318,0.0,0.0,82,0.00,,,0.00,,2013-05-25 06:52:00,
2013-05-25 02:01:00,49.0,44.0,30.27,NW,318,0.0,0.0,84,0.00,,,0.00,,2013-05-25 07:01:00,
2013-05-25 02:11:00,49.0,44.0,30.27,NW,318,0.0,0.0,84,0.00,,,0.00,,2013-05-25 07:11:00,
2013-05-25 02:21:00,48.0,44.0,30.27,NW,318,0.0,0.0,85,0.00,,,0.00,,2013-05-25 07:21:00,
2013-05-25 02:32:00,48.0,44.0,30.28,NW,318,0.0,0.0,86,0.00,,,0.00,,2013-05-25 07:32:00,
2013-05-25 02:42:00,48.0,44.0,30.28,NW,318,0.0,0.0,86,0.00,,,0.00,,2013-05-25 07:42:00,
2013-05-25 02:52:00,48.0,44.0,30.27,NW,318,0.0,0.0,86,0.00,,,0.00,,2013-05-25 07:52:00,
2013-05-25 03:02:00,48.0,44.0,30.26,NW,318,0.0,0.0,87,0.00,,,0.00,,2013-05-25 08:02:00,
2013-05-25 03:11:00,48.0,44.0,30.26,NW,318,0.0,0.0,87,0.00,,,0.00,,2013-05-25 08:11:00,
2013-05-25 03:22:00,48.0,44.0,30.26,NW,318,0.0,0.0,87,0.00,,,0.00,,2013-05-25 08:22:00,
2013-05-25 03:32:00,48.0,44.0,30.25,NW,318,0.0,0.0,87,0.00,,,0.00,,2013-05-25 08:32:00,
2013-05-25 03:42:00,48.0,45.0,30.25,NW,318,0.0,0.0,88,0.00,,,0.00,,2013-05-25 08:42:00,
2013-05-25 03:52:00,48.0,45.0,30.25,NW,318,0.0,0.0,88,0.00,,,0.00,,2013-05-25 08:52:00,
2013-05-25 04:01:00,48.0,45.0,30.24,NW,318,0.0,0.0,88,0.00,,,0.00,,2013-05-25 09:01:00,
2013-05-25 04:11:00,48.0,45.0,30.24,NW,318,0.0,0.0,88,0.00,,,0.00,,2013-05-25 09:11:00,
2013-05-25 04:21:00,48.0,45.0,30.22,NW,318,0.0,0.0,89,0.00,,,0.00,,2013-05-25 09:21:00,
2013-05-25 04:33:00,47.0,44.0,30.22,NW,318,0.0,0.0,89,0.00,,,0.00,,2013-05-25 09:33:00,
2013-05-25 04:42:00,47.0,44.0,30.22,NW,318,0.0,0.0,89,0.00,,,0.00,,2013-05-25 09:42:00,
2013-05-25 04:53:00,48.0,45.0,30.24,NW,318,0.0,0.0,90,0.00,,,0.00,,2013-05-25 09:53:00,
2013-05-25 05:02:00,48.0,45.0,30.25,NW,318,0.0,0.0,91,0.00,,,0.00,,2013-05-25 10:02:00,
2013-05-25 05:12:00,48.0,45.0,30.25,NW,318,0.0,0.0,91,0.00,,,0.00,,2013-05-25 10:12:00,
2013-05-25 05:22:00,48.0,45.0,30.26,NW,317,0.0,0.0,91,0.00,,,0.00,,2013-05-25 10:22:00,
2013-05-25 05:33:00,48.0,45.0,30.26,NW,317,0.0,0.0,91,0.00,,,0.00,,2013-05-25 10:33:00,
2013-05-25 05:42:00,48.0,45.0,30.26,NW,317,0.0,0.0,91,0.00,,,0.00,,2013-05-25 10:42:00,
2013-05-25 05:52:00,48.0,45.0,30.26,NW,317,0.0,0.0,91,0.00,,,0.00,,2013-05-25 10:52:00,
2013-05-25 06:02:00,48.0,45.0,30.26,NW,317,0.0,0.0,91,0.00,,,0.00,,2013-05-25 11:02:00,
2013-05-25 11:52:00,70.0,49.0,30.29,South,189,1.0,1.0,48,0.00,,,0.00,,2013-05-25 16:52:00,
2013-05-25 12:03:00,69.0,48.0,30.30,South,172,0.0,3.0,47,0.00,,,0.00,,2013-05-25 17:03:00,
2013-05-25 12:11:00,69.0,48.0,30.30,South,172,0.0,3.0,47,0.00,,,0.00,,2013-05-25 17:11:00,
2013-05-25 12:22:00,70.0,48.0,30.30,South,173,0.0,3.0,45,0.00,,,0.00,,2013-05-25 17:22:00,
2013-05-25 12:32:00,71.0,49.0,30.29,South,173,3.0,3.0,45,0.00,,,0.00,,2013-05-25 17:32:00,
2013-05-25 12:42:00,71.0,49.0,30.29,South,173,3.0,3.0,45,0.00,,,0.00,,2013-05-25 17:42:00,
2013-05-25 12:52:00,72.0,52.0,30.30,SE,141,2.0,2.0,50,0.00,,,0.00,,2013-05-25 17:52:00,
2013-05-25 13:01:00,72.0,49.0,30.29,SE,132,0.0,4.0,45,0.00,,,0.00,,2013-05-25 18:01:00,
2013-05-25 13:11:00,72.0,49.0,30.29,SE,132,0.0,4.0,45,0.00,,,0.00,,2013-05-25 18:11:00,
2013-05-25 13:21:00,72.0,47.0,30.28,SSE,155,2.0,2.0,41,0.00,,,0.00,,2013-05-25 18:21:00,
2013-05-25 13:32:00,72.0,50.0,30.28,SSE,155,1.0,2.0,46,0.00,,,0.00,,2013-05-25 18:32:00,
2013-05-25 13:42:00,72.0,50.0,30.28,SSE,155,1.0,2.0,46,0.00,,,0.00,,2013-05-25 18:42:00,
2013-05-25 13:52:00,71.0,46.0,30.28,North,10,1.0,1.0,41,0.00,,,0.00,,2013-05-25 18:52:00,
2013-05-25 14:01:00,72.0,51.0,30.27,SSE,161,0.0,3.0,48,0.00,,,0.00,,2013-05-25 19:01:00,
2013-05-25 14:11:00,72.0,51.0,30.27,SSE,161,0.0,3.0,48,0.00,,,0.00,,2013-05-25 19:11:00,
2013-05-25 14:21:00,72.0,46.0,30.27,ESE,107,0.0,1.0,39,0.00,,,0.00,,2013-05-25 19:21:00,
2013-05-25 14:32:00,72.0,48.0,30.26,West,278,0.0,1.0,43,0.00,,,0.00,,2013-05-25 19:32:00,
2013-05-25 14:42:00,72.0,48.0,30.26,West,278,0.0,1.0,43,0.00,,,0.00,,2013-05-25 19:42:00,
2013-05-25 14:52:00,71.0,51.0,30.26,NNE,26,0.0,1.0,50,0.00,,,0.00,,2013-05-25 19:52:00,
2013-05-25 15:02:00,72.0,51.0,30.26,East,80,0.0,2.0,47,0.00,,,0.00,,2013-05-25 20:02:00,
2013-05-25 15:11:00,72.0,51.0,30.26,East,80,0.0,2.0,47,0.00,,,0.00,,2013-05-25 20:11:00,
2013-05-25 15:21:00,72.0,48.0,30.25,South,178,1.0,1.0,42,0.00,,,0.00,,2013-05-25 20:21:00,
2013-05-25 15:32:00,73.0,50.0,30.24,SE,138,2.0,2.0,45,0.00,,,0.00,,2013-05-25 20:32:00,
2013-05-25 15:42:00,73.0,50.0,30.24,SE,138,2.0,2.0,45,0.00,,,0.00,,2013-05-25 20:42:00,
2013-05-25 15:52:00,73.0,50.0,30.24,SE,138,0.0,0.0,44,0.00,,,0.00,,2013-05-25 20:52:00,
2013-05-25 16:02:00,73.0,52.0,30.24,SE,138,0.0,0.0,48,0.00,,,0.00,,2013-05-25 21:02:00,
2013-05-25 16:11:00,73.0,52.0,30.24,SE,138,0.0,0.0,48,0.00,,,0.00,,2013-05-25 21:11:00,
2013-05-25 16:21:00,72.0,50.0,30.23,SW,222,2.0,3.0,46,0.00,,,0.00,,2013-05-25 21:21:00,
2013-05-25 16:33:00,72.0,50.0,30.22,SW,219,0.0,0.0,46,0.00,,,0.00,,2013-05-25 21:33:00,
2013-05-25 16:43:00,72.0,50.0,30.22,SW,219,0.0,0.0,46,0.00,,,0.00,,2013-05-25 21:43:00,
2013-05-25 16:53:00,71.0,49.0,30.21,SE,135,0.0,0.0,46,0.00,,,0.00,,2013-05-25 21:53:00,
2013-05-25 17:03:00,71.0,50.0,30.17,SE,135,0.0,1.0,47,0.00,,,0.00,,2013-05-25 22:03:00,
2013-05-25 17:12:00,71.0,50.0,30.17,SE,135,0.0,1.0,47,0.00,,,0.00,,2013-05-25 22:12:00,
2013-05-25 17:22:00,70.0,48.0,30.16,SSE,167,2.0,3.0,46,0.00,,,0.00,,2013-05-25 22:22:00,
2013-05-25 17:32:00,70.0,48.0,30.16,SSE,167,2.0,3.0,46,0.00,,,0.00,,2013-05-25 22:32:00,
2013-05-25 17:42:00,70.0,48.0,30.16,SSE,167,2.0,3.0,46,0.00,,,0.00,,2013-05-25 22:42:00,
2013-05-25 17:52:00,70.0,48.0,30.16,SSE,167,2.0,3.0,46,0.00,,,0.00,,2013-05-25 22:52:00,
2013-05-25 18:02:00,70.0,48.0,30.16,SSE,167,2.0,3.0,46,0.00,,,0.00,,2013-05-25 23:02:00,